Погода в Зубках

Беларусь     53°04′52″N   26°45′16″E
темп.,
°C
ветер,
м/с
пор.,
м/с
влажн.,
%
обл.,
%
осадки,
мм/ч
давл.,
гПа
погр.,
м
8 мая, сб
сб800:00+6сз589668 0.0 1006409
03:00+5сз479495 0.1 1007467
06:00+3сз3796100 0.0 1009238
09:00+5сз6979100 0.0 1011507
12:00+7сз7968100 0.0 10121225
15:00+6сз6969100 0.1 10151304
18:00+9сз586346 0.2 10151798
21:00+4з47786 0.3 1018112
9 мая, вс
вс900:00+2з38885 0.0 1019125
03:00+2з35935 0.0 102186
06:00+1зсз33956 0.0 102244
09:00+7зсз237836 0.0 1024435
12:00+11з335811 0.0 10241419
15:00+13зюз344869 0.1 10241999
18:00+13юз44546 0.0 10231858
21:00+8ю33665 0.0 102538
10 мая, пн
пн1000:00+6ююв49705 0.0 1026128
03:00+5ю497831 0.0 1026144
06:00+4ююв497961 0.0 1027156
09:00+11ююв58658 0.0 1027343
12:00+15ююв685358 0.0 10261153
15:00+17ююв684852 0.0 10251427
18:00+17ююв585737 0.0 1025841
21:00+11юв497368 0.0 1025138
11 мая, вт
вт1100:00+9юв4128292 0.0 1026205
03:00+8юв51383100 0.0 1026256
06:00+7юв4138859 0.0 1026276
09:00+12ююв611685 0.0 1026533
12:00+16юв78480 0.0 10251065
15:00+18юв78470 0.0 10241240
18:00+18вюв69580 0.0 1023793
21:00+12вюв512765 0.0 1023241
12 мая, ср
ср1200:00+9вюв5138263 0.0 1023235
03:00+8вюв4108928 0.0 1022191
06:00+8вюв39955 0.0 1022174
09:00+14вюв59824 0.0 1021510
12:00+18в696721 0.0 10191137
15:00+20в81262100 0.0 10171789
18:00+16вюв913774 0.2 10171129
21:00+11вюв511840 0.2 1018405